CZ-2D DEB, 44603

Orbit data source: Space-Track

CZ-2D DEB, 44603 is space debris in SSO originally from a launch on Fri, 11 Nov 2016 UTC launched from the Jiuquan Satellite Launch Center, China (JSC). Debris objects in space refer to the collection of defunct objects orbiting the Earth. Examples of debris include non-operational satellites, rocket bodies, and fragments generated from explosions, collisions, or faulty payload assembly.

Loading next visibility...
Identifier
44603, 2016-068C
Orbit
SSO
Country
Flag of CNCN / PRC
Related business
Manufacturer
Unknown
Mission
Spacecraft
Bus & Motor
Unknown
Mass
Unknown
Launch date (UTC)
2016-11-11 (9 years ago)
Launch vehicle
Unknown
Launch site
Jiuquan Satellite Launch Center, China (JSC)
Object type
Payload
Rocket body
Debris
Shape & HBR
Unknown shape, 0.1 m
Radar Cross Section
Small (<0.1 m²)

Expand to show TLE details & history
Last TLE update: 2 days ago

TLE from 2 days ago
0 CZ-2D DEB
1 44603U 16068C   25298.76358969  .00001226  00000-0  78929-3 0  9996
2 44603  98.5418 113.8746 0215267 165.7194 195.0185 13.94006509941460
Epoch: 2025-10-25T18:19Z
TLE epoch observation values (Epoch: 2025-10-25T18:19:34.149Z)
Latitude
-0°
Longitude
164.59285°
Altitude
1,069.387 km
Speed
7.241 km/s
True Right ascension
07h 35m 29s
True Declination
0° 00' 00"
Sunlit
Object was in daylight at epoch
Visualization orbit readout
Latitude
Unknown
Longitude
Unknown
Altitude
Unknown
Speed
Unknown
Apparent Right ascension
Unknown
Apparent Declination
Unknown
Sunlit
N/A
Visualization observer readout
Local Sidereal Time
20:40:31
Azimuth
Unknown
Elevation
Unknown
Doppler factor
Unknown
Orbital elements
Apogee altitude
1,068.736 km
Perigee altitude
754.879 km
Semi-major axis
7,289.945 km
Eccentricity
0.02153
Inclination
98.5418°
RAAN
113.8746°
Arg. of periapsis
165.7194°
True anomaly
194.3955°
Mean anomaly
195.0185°
Eccentric anomaly
194.70541°
Mean motion
3.48704 °/min
Orbital period
103.24 mins
BSTAR
0.00078929
Loading maneuver chart data...
Computing Atmospheric mass density...
Loading historical data...
Loading historical data...
Loading historical data...
Loading historical data...
Loading historical data...
Loading historical data...
Loading historical data...

Documentation

Showing up to 5 results
|